Погода в Заре

Россия / Кировская область     60°00′28″N   48°01′34″E
темп.,
°C
ветер,
м/с
пор.,
м/с
влажн.,
%
обл.,
%
осадки,
мм/ч
давл.,
гПа
погр.,
м
23 июня, ср
ср2300:00+19з247112 0.0 101856
03:00+19зсз247213 0.0 101866
06:00+23с25674 0.0 1018182
09:00+27ссз24515 0.0 1018817
12:00+30ссз34405 0.0 10182059
15:00+31ссз243638 0.0 10182429
18:00+30з00535 0.0 101715
21:00+24ююв226687 0.0 101733
24 июня, чт
чт2400:00+22з257182 0.1 1018170
03:00+18юв229199 0.1 101737
06:00+20зсз2582100 0.1 1017160
09:00+27з365644 0.1 1016574
12:00+31зсз464341 0.0 10151693
15:00+33ссз493578 0.0 10142674
18:00+23юз367318 0.1 1013152
21:00+21зюз2880100 0.3 1013154
25 июня, пт
пт2500:00+21з3117670 0.1 1012232
03:00+19зсз268346 0.1 1012114
06:00+23зсз387322 0.0 1013265
09:00+28ссз35516 0.0 1013945
12:00+31сз343820 0.0 10131964
15:00+32сз133782 0.0 10112249
18:00+18с3698100 30.5 1014146
21:00+18з2498100 31.0 101394
26 июня, сб
сб2600:00+17ссз22985 0.0 101349
03:00+17св249960 0.0 1014110
06:00+18всв24898 0.0 1015235
09:00+21ссв2267100 0.0 1015550
12:00+22всв12718 0.5 1014437
15:00+26св115352 0.5 10131162
18:00+25ссв236298 0.0 1012472
21:00+19св227653 0.0 101316
27 июня, вс
вс2700:00+16всв22748 0.0 101312
03:00+15всв11805 0.0 101411
06:00+20всв12665 0.0 1014152
09:00+25всв23475 0.0 1014885
12:00+28всв113871 0.0 10141646
15:00+28ссв11375 0.0 10141889
18:00+27с11565 0.0 101423
21:00+20всв22715 0.0 101426